Dewpoint
56 57 58 59 59 59 60 60 60 61 61 62 63 64 65 65 66 66 67 68 68 69 69 69 69 70 69 69 69 69 69 69 69 69 69 69 71 70 69 70 70 70 71 72 72 73 73 73 73 73 74 75 75 75 76 76 75 75 75 75 74 75 74
55 57 58 59 59 59 60 60 60 61 62 62 63 65 65 66 66 66 67 68 68 68 69 69 70 69 69 69 69 69 69 69 69 70 70 70 71 72 70 70 71 71 71 72 73 73 73 73 73 73 74 74 75 75 75 76 75 75 75 74 74 74 74
55 56 58 59 59 59 60 60 61 61 62 62 63 65 65 66 67 67 67 68 68 68 69 69 70 69 69 69 69 69 69 69 69 69 70 69 69 71 72 71 71 72 72 72 73 73 73 73 73 73 73 74 74 75 75 75 75 75 74 74 74 74 74
55 56 57 59 59 60 60 60 61 61 62 63 63 65 65 66 67 68 68 68 68 68 68 69 70 69 69 69 69 69 69 70 70 70 70 70 70 70 72 72 71 71 72 72 73 73 74 73 73 73 75 74 74 74 75 75 75 75 74 74 74 74 74
55 56 57 58 58 59 60 61 61 61 62 63 64 65 66 67 68 68 68 69 69 68 68 69 69 70 70 69 69 70 70 70 70 70 70 71 71 71 71 72 72 71 71 72 73 74 74 74 73 73 74 74 74 74 74 75 75 75 74 74 74 74 74
55 55 56 58 58 59 60 61 61 61 61 62 64 65 66 67 68 68 69 69 69 69 69 69 69 70 70 70 70 70 70 70 70 71 71 71 71 71 71 72 72 71 71 72 73 74 74 74 73 73 73 74 74 74 74 74 74 74 74 74 73 74 74
54 55 56 57 58 59 60 61 61 62 61 62 63 65 66 67 67 68 69 69 70 69 69 69 69 70 70 70 70 70 70 70 70 70 71 71 71 71 71 71 72 72 71 72 72 73 74 74 74 73 73 73 74 74 74 74 74 74 74 74 73 73 74
54 55 56 57 58 59 60 61 62 62 62 62 63 64 65 66 67 68 69 69 70 70 70 70 70 70 70 71 70 70 70 70 70 70 71 70 71 71 71 71 72 73 73 72 72 73 73 73 74 74 73 73 73 74 74 74 74 74 74 74 73 73 74
54 55 55 57 58 59 60 61 61 62 62 62 62 64 65 66 67 68 69 69 70 70 70 70 70 70 70 71 71 70 70 70 70 71 70 70 70 71 71 71 71 72 73 73 72 73 73 73 73 73 73 73 73 73 74 74 74 74 74 73 73 73 73
53 54 55 56 57 58 59 60 61 62 62 62 63 63 64 65 66 68 69 69 70 70 70 70 70 70 70 70 71 71 70 70 70 70 70 70 70 70 70 71 71 71 72 73 73 73 73 73 73 73 73 73 73 73 73 74 74 74 74 74 73 73 73
52 54 55 55 56 57 59 60 61 62 62 62 63 63 64 65 66 67 68 69 70 70 71 71 71 71 70 70 70 70 71 70 70 70 70 70 70 70 70 70 70 70 71 72 73 73 73 73 73 73 73 73 73 73 73 73 74 74 74 74 74 74 74
52 53 54 55 55 57 58 59 61 62 62 62 63 63 64 65 65 66 68 69 70 71 71 71 71 71 71 71 70 70 70 71 70 70 70 70 70 70 70 70 70 70 70 70 71 73 73 73 73 73 73 73 72 73 73 73 74 74 74 74 74 74 74
52 53 54 54 55 56 58 59 60 61 62 62 62 63 64 65 65 66 67 68 69 70 71 71 71 71 71 71 71 71 70 70 70 70 70 70 70 70 70 70 70 70 70 70 70 71 72 73 73 72 73 73 73 72 73 73 74 74 74 74 74 74 74
58 52 53 54 55 56 58 59 60 61 61 61 61 63 65 65 65 66 67 68 69 70 71 71 72 72 71 71 71 71 71 71 71 71 70 70 70 70 70 70 70 71 70 70 70 69 70 72 73 72 72 72 73 73 73 72 73 74 74 74 74 74 74
51 51 52 53 54 56 57 58 60 60 61 61 61 62 65 66 66 67 67 68 69 69 70 71 72 72 72 71 71 71 71 71 71 71 71 71 71 70 70 70 70 71 71 71 70 70 70 70 71 72 72 72 72 72 73 73 73 73 73 74 74 74 74
51 51 51 51 53 54 56 58 59 60 61 62 62 63 65 66 66 67 67 67 68 69 70 71 72 72 72 72 72 72 72 72 72 72 71 71 71 71 70 70 70 70 71 71 70 70 70 70 70 71 72 72 71 71 72 73 73 71 67 68 73 74 74
50 50 50 51 52 53 56 57 59 60 61 62 63 63 66 67 67 67 67 68 68 69 70 71 72 72 72 72 72 72 72 72 72 72 71 71 71 71 71 70 70 70 70 70 71 71 70 70 70 70 71 71 72 71 71 72 72 67 65 65 66 72 74
47 49 50 50 51 53 56 58 61 61 62 62 63 64 66 68 68 68 67 68 68 68 70 71 72 72 72 72 72 72 72 72 72 72 71 71 71 71 71 70 70 70 70 70 70 71 71 70 70 70 70 71 71 71 72 71 67 64 64 64 64 67 73
49 49 51 52 53 55 56 58 61 63 63 63 64 65 66 68 68 68 68 69 69 69 70 71 72 72 72 72 73 72 72 72 71 71 71 71 71 71 71 70 70 70 70 69 70 70 71 70 70 70 70 70 71 71 71 72 67 64 63 64 64 64 68
57 54 55 53 53 55 56 59 61 64 66 67 67 66 67 69 69 69 69 69 70 69 70 71 72 72 73 73 73 73 72 72 71 71 71 71 71 71 71 71 70 70 70 70 70 70 70 70 70 70 70 70 70 71 71 71 67 63 62 62 62 63 65
64 62 62 64 65 65 66 67 67 67 68 68 67 68 69 70 70 70 70 70 70 70 70 70 71 72 73 73 73 73 73 72 72 71 71 71 71 71 71 71 71 70 70 70 69 69 69 70 70 70 70 69 69 70 70 71 66 62 61 60 61 62 63
66 68 68 69 68 68 69 69 69 69 69 70 70 69 69 69 70 70 70 71 71 71 70 70 70 71 72 73 73 73 73 73 72 72 71 71 71 70 70 71 71 71 70 70 69 69 69 70 70 70 70 70 70 69 69 70 64 61 60 60 60 61 67
66 67 69 70 70 70 70 70 70 70 70 68 68 69 69 69 70 70 70 70 71 71 71 71 70 70 72 73 73 73 73 73 73 72 72 71 71 70 70 70 71 71 71 70 70 69 69 69 70 71 71 71 71 70 70 70 66 61 59 59 59 60 69
69 70 70 69 69 70 71 71 71 72 71 72 73 73 73 72 70 70 70 70 71 71 71 71 70 71 71 72 73 73 73 73 73 73 72 72 71 71 70 70 70 71 71 70 70 69 69 69 69 70 71 71 71 71 71 70 67 59 58 58 58 62 69
68 69 69 69 69 70 71 71 72 72 72 72 72 72 74 73 72 69 70 71 71 70 70 70 70 71 71 72 72 73 73 73 73 73 73 72 72 71 71 71 71 71 71 71 70 70 69 70 69 69 70 70 71 71 71 71 68 57 58 57 58 62 70
66 66 67 69 70 70 71 71 70 70 71 72 73 74 74 74 74 74 71 70 70 71 70 70 70 71 71 72 73 73 73 73 74 74 73 73 73 72 72 72 71 71 71 71 71 70 70 69 69 69 70 70 70 70 71 72 72 65 56 57 57 58 70
66 66 67 68 70 72 70 70 70 70 70 71 72 73 73 73 72 72 73 73 70 70 70 71 71 71 71 72 73 73 73 73 74 73 73 73 73 73 73 72 72 72 72 71 71 71 71 70 70 70 70 70 71 71 71 72 72 68 55 56 56 57 62
66 66 67 68 71 70 69 69 70 70 70 71 72 72 73 73 72 71 72 71 71 72 73 71 71 72 72 72 73 74 73 73 74 74 74 74 74 74 73 73 73 72 72 72 72 72 72 71 71 70 70 71 71 72 72 73 70 73 57 56 55 56 56
66 66 66 66 67 69 69 69 70 70 70 70 71 71 72 73 74 72 71 70 71 73 74 74 71 72 72 72 73 74 74 74 74 74 75 74 74 74 74 74 74 74 73 73 73 73 72 72 72 72 71 72 73 73 73 73 72 67 66 55 54 54 54
66 66 66 67 68 69 69 69 69 69 69 69 70 70 71 72 72 74 73 70 72 74 76 74 72 72 72 72 73 74 74 74 75 75 75 75 75 75 74 75 75 74 74 74 73 73 73 73 73 72 72 72 72 73 73 74 74 68 63 62 54 53 53
65 66 67 67 68 69 68 68 69 69 69 69 69 68 69 70 71 72 71 71 73 74 74 74 73 72 72 72 73 74 74 75 75 76 76 76 76 75 75 75 75 75 75 74 74 74 74 74 74 73 73 72 72 72 73 74 69 63 57 59 56 53 52
64 65 66 67 68 68 68 68 69 68 68 67 68 68 69 69 70 69 70 72 73 74 74 75 73 73 72 72 73 74 74 75 75 76 76 76 76 76 76 75 75 75 75 75 74 74 74 74 74 73 73 73 72 73 73 68 66 64 62 60 57 55 53
64 65 65 66 67 69 67 68 68 68 67 67 67 68 69 70 70 70 71 71 72 75 75 75 73 74 73 73 73 74 75 75 75 76 76 76 76 76 76 76 76 75 75 75 75 74 74 74 74 74 73 73 73 71 64 62 62 63 65 65 62 60 58
63 64 65 66 67 68 66 67 67 66 67 67 67 68 69 69 69 70 70 71 72 74 74 75 74 73 73 73 74 74 75 75 78 76 76 75 75 75 76 76 76 75 75 75 75 75 74 74 74 74 74 74 72 63 60 58 58 59 59 60 63 64 64
62 63 64 65 66 67 66 67 68 67 66 66 67 67 67 68 69 70 69 70 72 73 73 73 74 73 73 73 74 74 75 75 76 74 70 64 59 55 54 53 59 72 71 65 68 75 75 75 75 74 75 74 67 62 59 58 57 58 54 57 54 59 58
62 63 63 65 66 66 66 68 68 66 66 65 66 67 66 67 67 69 69 71 71 72 72 71 71 71 72 72 73 73 73 72 70 68 66 63 61 58 57 54 47 49 61 62 59 58 65 66 72 70 66 62 60 61 60 56 57 50 45 45 45 46 48
61 62 63 64 64 65 65 66 68 67 67 65 66 66 67 67 68 68 69 71 71 71 71 71 70 70 70 71 71 69 69 68 67 66 65 64 62 62 61 60 56 47 46 51 52 49 47 48 50 53 57 61 58 56 53 52 48 45 45 45 45 45 45
62 62 63 63 64 65 65 65 66 66 66 65 66 66 66 66 67 68 70 71 71 71 70 70 71 70 70 70 69 68 67 66 65 65 64 63 62 62 61 60 59 57 50 46 48 48 47 47 48 48 50 51 54 56 55 49 45 44 44 45 45 45 43